Weather History for Madison, WI

Change the Weather History Date:

Wednesday, February 13, 2013

  Actual Average Record
Temperature  
Mean Temperature 27 °F 22 °F  
Max Temperature 38 °F 30 °F 51 °F (1921)
Min Temperature 16 °F 14 °F -24 °F (1905)
Degree Days  
Heating Degree Days 38 43  
Month to date heating degree days 602 573  
Since 1 July heating degree days 4536 4886  
Cooling Degree Days 0 0  
Month to date cooling degree days 0 0  
Year to date cooling degree days 0 0  
Moisture  
Dew Point 24 °F    
Average Humidity 80    
Maximum Humidity 96    
Minimum Humidity 64    
Precipitation  
Precipitation T in 0.05 in 1.03 in (1950)
Month to date precipitation 1.56 0.60  
Year to date precipitation 4.43 1.83  
Snow  
Snow T in 0.40 in 10.30 in (1950)
Month to date snowfall 10.9 5.2  
Since 1 July snowfall 43.3 35.7  
Snow Depth 5.00 in    
Sea Level Pressure  
Sea Level Pressure 29.76 in    
Wind  
Wind Speed 4 mph (SSW)    
Max Wind Speed 14 mph    
Max Gust Speed 21 mph    
Visibility 8 miles    
Events      
T = Trace of Precipitation, MM = Missing Value Source: NWS Daily Summary

Daily Weather History Graph

Daily Weather History Graph

Search for Another Location

Airport:

Trip Planner

Search our weather history database for the weather conditions in past years. The results will help you decide how hot, cold, wet, or windy it might be!

Date:

Astronomy

Feb. 13, 2013 Rise Set
Actual Time 6:57 AM CST 5:26 PM CST
Civil Twilight 6:28 AM CST 5:55 PM CST
Nautical Twilight 5:54 AM CST 6:28 PM CST
Astronomical Twilight 5:21 AM CST 7:01 PM CST
Moon 8:19 AM CST (2/13) 9:37 PM CST (2/13)
Length of Visible Light 11h 27m
Length of Day
10h 28m
Waxing Crescent, 14% of the Moon is Illuminated
Feb 13
Waxing Crescent
Feb 17
First Quarter
Feb 25
Full
Mar 4
Last Quarter
Mar 11
New

Hourly Weather History & Observations

Time (CST) Temp. Windchill Dew Point Humidity Pressure Visibility Wind Dir Wind Speed Gust Speed Precip Events Conditions
12:53 AM 25.0 °F 17.1 °F 21.0 °F 85% 29.87 in 7.0 mi South 6.9 mph - N/A   Clear
1:53 AM 23.0 °F 18.4 °F 19.9 °F 88% 29.85 in 7.0 mi SSW 3.5 mph - N/A   Clear
2:53 AM 21.9 °F - 19.0 °F 89% 29.83 in 5.0 mi Calm Calm - N/A   Clear
3:53 AM 21.9 °F 17.2 °F 19.0 °F 89% 29.82 in 5.0 mi South 3.5 mph - N/A   Clear
4:53 AM 21.0 °F 16.2 °F 19.0 °F 92% 29.81 in 4.0 mi South 3.5 mph - N/A   Clear
5:53 AM 19.0 °F - 16.0 °F 88% 29.79 in 5.0 mi Calm Calm - N/A   Clear
6:53 AM 17.1 °F - 15.1 °F 92% 29.78 in 3.0 mi Calm Calm - N/A   Clear
7:53 AM 19.0 °F - 17.1 °F 92% 29.78 in 4.0 mi Calm Calm - N/A   Clear
8:53 AM 23.0 °F - 21.0 °F 92% 29.78 in 4.0 mi Calm Calm - N/A   Partly Cloudy
9:53 AM 32.0 °F 27.5 °F 26.1 °F 79% 29.77 in 6.0 mi SW 4.6 mph - N/A   Haze
10:53 AM 32.0 °F 28.7 °F 23.0 °F 69% 29.77 in 10.0 mi Variable 3.5 mph - N/A   Scattered Clouds
11:53 AM 34.0 °F 27.2 °F 25.0 °F 70% 29.75 in 9.0 mi South 8.1 mph - N/A   Mostly Cloudy
12:53 PM 35.1 °F 29.3 °F 25.0 °F 67% 29.74 in 9.0 mi SSW 6.9 mph - N/A   Overcast
1:53 PM 36.0 °F 31.1 °F 26.1 °F 67% 29.73 in 10.0 mi Variable 5.8 mph - N/A   Clear
2:53 PM 37.0 °F 33.3 °F 26.1 °F 65% 29.73 in 10.0 mi Variable 4.6 mph - N/A   Partly Cloudy
3:53 PM 37.0 °F 34.5 °F 26.1 °F 65% 29.74 in 10.0 mi Variable 3.5 mph - N/A   Scattered Clouds
4:53 PM 35.1 °F 31.0 °F 26.1 °F 70% 29.74 in 10.0 mi SW 4.6 mph - N/A   Mostly Cloudy
5:53 PM 35.1 °F 31.0 °F 26.1 °F 70% 29.75 in 10.0 mi SW 4.6 mph - N/A   Overcast
6:53 PM 35.1 °F - 27.0 °F 72% 29.75 in 10.0 mi Calm Calm - N/A   Overcast
7:53 PM 35.1 °F 32.2 °F 27.0 °F 72% 29.74 in 10.0 mi Variable 3.5 mph - N/A   Overcast
8:53 PM 35.1 °F 31.0 °F 28.0 °F 76% 29.73 in 10.0 mi SSW 4.6 mph - N/A   Overcast
9:53 PM 35.1 °F 32.2 °F 28.0 °F 76% 29.72 in 10.0 mi SSW 3.5 mph - N/A   Overcast
10:53 PM 33.1 °F 27.7 °F 28.0 °F 82% 29.70 in 10.0 mi South 5.8 mph - N/A   Overcast
11:53 PM 34.0 °F 28.8 °F 28.9 °F 82% 29.68 in 8.0 mi South 5.8 mph - 0.00 in   Overcast